Wind_Speed
26 24 26 29 30 30 30 31 31 30 29 27 27 27 28 29 28 27 26 23 21 21 21 22 22 24 25 27 28 27 26 26 24 23 22 21 20 19 19 19 21 22 23 24
23 21 25 27 26 28 30 32 32 32 30 28 30 31 31 29 27 25 23 19 17 18 19 20 22 24 27 29 29 28 27 27 26 25 25 24 23 21 21 20 20 21 22 22
23 24 27 24 21 27 30 31 33 35 32 31 33 32 28 25 24 22 19 17 16 16 17 19 22 25 27 28 28 27 26 26 26 26 27 27 26 25 24 23 22 22 23 22
26 26 27 22 27 31 33 33 34 34 32 30 28 24 21 19 18 17 16 15 16 17 20 23 25 27 28 27 26 26 25 26 26 26 27 27 27 27 27 26 25 25 25 23
25 25 24 24 26 27 25 23 23 23 21 18 16 14 13 12 13 15 16 17 20 23 26 27 28 28 27 25 25 25 24 24 24 25 26 27 28 28 28 28 27 27 26 25
22 22 21 15 13 11 10 9 8 8 8 8 9 8 9 11 14 17 20 22 24 26 27 28 28 27 25 24 24 24 24 24 25 26 28 29 30 30 30 29 29 28 28 27
19 17 10 7 6 5 3 2 0 1 2 3 4 7 10 14 17 20 21 22 23 24 25 25 24 23 23 23 24 24 26 27 27 28 29 30 31 32 32 31 30 29 28 27
16 10 14 14 9 5 2 1 2 3 4 5 7 10 13 15 18 19 20 20 20 21 21 21 20 21 22 23 24 25 25 26 27 28 29 30 31 32 32 31 30 29 28 27
15 14 19 16 12 6 1 4 5 6 6 8 9 10 11 14 16 18 19 18 18 18 18 18 19 20 22 23 23 23 23 24 25 26 27 29 30 31 31 30 28 27 27 26
18 20 22 18 12 6 2 6 7 8 9 9 9 9 10 13 15 16 16 15 15 16 17 18 19 21 21 20 19 20 21 21 21 21 23 24 25 26 26 26 25 25 25 24
24 22 23 20 15 9 4 5 8 9 9 9 10 10 12 13 14 14 13 13 14 15 16 17 19 19 19 17 17 17 17 16 16 16 15 14 15 16 18 20 21 22 22 22
26 24 23 21 18 12 7 5 8 9 9 9 10 11 12 13 12 12 11 11 12 12 13 16 17 17 16 15 15 15 15 14 13 13 10 5 3 8 12 15 17 19 19 20
29 26 23 22 17 12 9 8 8 9 9 9 10 11 12 11 10 10 10 10 10 11 13 15 16 15 14 14 14 14 13 12 12 11 9 6 5 6 10 12 14 15 16 17
32 29 25 22 19 14 11 10 10 9 9 9 10 11 10 10 10 9 9 10 11 12 14 15 15 14 14 13 13 13 12 11 11 10 10 8 7 7 8 9 10 11 12 14
35 31 28 24 20 15 12 13 12 11 9 9 10 10 9 9 9 9 9 10 11 12 14 15 15 15 14 12 11 11 10 10 10 10 9 8 7 6 6 6 7 8 9 11
39 35 32 28 22 17 15 15 14 12 10 9 9 9 8 8 8 8 9 10 11 11 12 13 15 15 13 11 9 9 8 9 9 9 9 9 8 7 5 4 4 4 6 7
39 36 33 30 25 21 18 17 16 13 11 10 8 7 6 5 6 7 9 9 10 10 10 11 13 14 13 11 10 8 8 7 7 8 8 8 7 6 5 4 2 1 2 3
38 36 33 29 27 23 21 19 17 15 12 10 8 5 3 3 5 7 8 9 9 9 9 10 11 12 12 11 10 9 9 8 7 7 7 7 7 6 6 5 4 2 1 0
37 36 33 29 27 25 22 21 19 17 14 11 8 5 2 1 3 6 7 8 8 8 9 9 10 10 10 11 11 10 9 9 8 7 7 7 7 7 7 6 6 4 3 2
36 36 34 30 27 24 23 23 22 19 15 12 9 6 4 2 2 4 7 8 8 8 9 9 9 9 10 10 11 11 11 10 10 9 8 8 7 7 7 7 7 6 5 4
35 36 35 31 27 25 26 26 24 20 17 13 11 9 7 5 2 3 7 8 9 9 9 9 9 9 10 11 11 12 12 12 12 11 11 10 10 9 9 9 9 8 7 7
35 36 35 32 29 27 28 27 25 21 18 15 14 12 10 8 4 1 5 8 9 9 9 9 9 9 10 11 12 13 13 13 13 13 12 12 12 12 12 11 11 10 10 9
38 38 36 33 30 29 29 29 26 23 19 17 16 15 13 10 5 2 3 6 7 8 8 8 9 9 10 11 12 13 13 13 14 14 14 14 14 14 14 14 13 13 13 12
40 41 38 34 30 30 30 29 27 23 20 19 18 17 15 11 8 4 3 4 5 6 6 7 8 8 9 10 11 12 13 14 14 15 15 15 15 15 15 15 15 15 15 15
41 43 41 36 32 31 31 30 27 24 20 20 20 18 16 13 9 6 5 2 2 3 5 6 7 8 9 9 10 11 12 13 14 15 15 16 16 16 16 16 16 17 17 17
40 43 42 38 35 33 32 31 28 24 22 21 20 19 16 13 11 8 6 4 2 2 4 5 7 8 9 10 10 11 12 12 13 14 14 15 16 16 17 17 18 18 19 19
38 42 42 38 35 34 33 32 29 26 23 21 20 19 16 13 11 10 9 7 6 5 4 4 5 6 8 9 9 10 10 11 11 12 13 14 15 16 17 18 19 19 20 20
Wind_Direction
257 257 257 258 259 260 262 264 265 268 270 274 277 277 281 287 291 293 294 294 288 282 279 280 282 286 290 292 292 291 290 288 284 281 280 278 274 269 263 258 257 257 256 252
256 261 263 260 262 265 264 265 266 268 269 272 272 274 278 284 287 288 288 285 278 276 280 286 289 291 290 289 288 287 285 283 281 279 278 277 275 270 265 261 258 256 253 251
260 264 264 264 269 265 263 264 267 268 271 269 269 271 276 278 280 282 281 276 272 277 286 292 293 292 290 287 286 284 282 280 278 275 274 273 272 269 266 263 259 256 253 252
265 265 267 273 272 272 272 270 268 270 270 268 266 266 268 272 276 278 278 276 278 286 292 295 296 295 293 290 286 283 279 277 274 271 269 267 266 265 264 263 260 256 253 252
266 270 278 281 278 274 271 267 264 264 262 259 258 259 260 268 278 284 287 288 291 294 297 298 299 298 295 291 287 283 280 276 273 271 269 267 265 264 263 261 259 255 252 250
266 276 287 281 267 259 253 247 247 247 247 245 246 251 263 278 287 290 292 292 294 295 297 298 299 298 295 291 287 284 282 279 276 273 270 268 266 264 263 261 258 254 251 249
266 273 259 202 181 161 144 175 175 208 233 245 265 276 282 287 289 291 292 294 296 297 298 299 299 297 295 292 290 287 286 283 280 275 271 267 264 262 260 258 254 251 249 247
255 232 167 158 152 130 94 11 340 316 301 292 288 289 290 291 293 296 299 302 303 301 300 300 300 300 300 298 296 294 291 287 283 278 273 268 263 260 257 254 252 249 246 242
230 189 163 161 156 149 223 299 302 298 293 292 293 295 295 297 301 304 306 307 305 302 303 304 305 307 307 306 303 301 299 294 289 283 277 270 263 256 252 249 247 243 239 237
218 178 169 168 162 156 267 299 302 303 305 308 313 313 309 309 310 310 309 307 306 306 307 310 313 316 317 315 313 311 309 305 300 293 284 274 263 253 245 238 234 231 230 229
219 195 182 178 171 169 189 281 290 294 300 307 314 314 314 316 316 313 310 309 310 311 315 320 325 328 327 325 325 325 325 324 322 317 306 285 259 241 229 221 218 218 220 222
213 201 194 187 185 184 194 237 273 286 292 299 304 307 313 318 319 317 317 319 319 321 328 333 334 333 333 335 338 343 346 347 347 348 346 333 231 203 202 201 203 207 212 215
211 205 196 189 194 198 206 222 252 272 282 291 297 306 314 320 323 324 326 328 330 336 342 342 339 339 343 349 355 360 3 6 9 15 28 54 107 150 170 182 192 201 208 212
209 203 197 201 207 214 223 227 234 253 271 284 294 306 315 322 326 329 332 334 335 341 346 346 346 350 355 360 5 11 17 22 27 37 49 67 92 125 151 169 184 196 205 210
211 208 206 210 214 221 230 231 228 238 256 275 290 304 314 323 329 333 337 338 338 340 345 350 357 0 2 5 10 19 28 34 41 49 57 68 82 101 126 153 175 190 202 210
210 209 210 213 216 221 228 228 224 229 242 261 281 298 313 325 334 342 344 342 340 341 348 359 7 9 10 11 15 25 36 44 51 56 62 67 74 84 99 121 157 191 212 222
212 210 211 213 217 223 226 224 222 224 231 246 268 289 309 329 346 353 350 347 347 349 359 11 16 17 19 23 29 37 45 51 56 59 62 64 65 64 64 69 88 151 206 226
214 213 214 217 222 227 226 221 222 222 223 234 252 269 294 335 356 360 356 355 357 3 15 23 24 24 27 33 39 45 51 55 58 61 62 60 56 48 43 40 41 45 53 248
217 215 214 217 223 228 225 220 219 217 216 223 233 235 239 334 9 9 5 4 8 16 29 36 35 32 33 37 39 44 48 50 52 53 52 51 49 46 41 37 34 33 29 14
216 213 211 214 218 222 220 217 214 210 209 212 212 206 197 166 66 23 15 15 21 28 37 43 44 42 42 41 42 44 45 46 45 44 41 40 37 36 34 32 31 30 27 19
211 209 208 210 211 213 213 212 208 205 204 202 199 194 186 174 143 38 24 23 29 34 41 45 48 49 48 47 46 45 44 42 41 41 40 39 38 37 37 36 36 35 32 26
205 205 207 206 205 206 208 206 202 201 200 197 193 190 188 185 181 43 20 20 27 37 44 48 50 52 52 51 49 47 46 45 45 44 44 44 44 45 44 43 41 38 32 24
201 202 205 205 203 202 202 199 199 200 198 194 191 192 193 194 202 249 351 13 26 38 47 50 52 54 54 53 51 50 50 51 51 51 50 50 51 50 49 47 45 42 37 31
201 201 203 203 201 199 197 197 199 199 196 193 193 196 199 204 215 243 304 358 29 44 51 54 57 60 61 59 58 58 58 58 58 58 58 58 57 55 52 50 47 44 41 38
203 201 201 201 198 195 195 196 198 198 196 195 197 201 206 214 224 241 264 299 29 59 65 65 67 70 71 68 66 66 64 62 60 59 58 57 56 54 52 49 47 44 41 38
207 202 200 198 196 194 194 196 197 197 196 198 201 204 210 218 228 237 238 227 182 126 99 84 79 77 76 74 71 69 67 64 61 58 56 55 53 51 50 48 45 43 40 38
207 202 199 197 196 195 194 195 196 196 197 201 204 207 212 220 225 224 213 198 183 165 142 113 93 84 81 78 75 72 69 66 63 60 58 55 53 51 49 46 43 41 40 38
Height
5776 5778 5778 5778 5779 5780 5780 5779 5779 5780 5780 5782 5781 5781 5780 5779 5778 5777 5776 5774 5772 5770 5769 5768 5768 5767 5766 5764 5763 5761 5760 5758 5757 5756 5756 5755 5755 5755 5756 5756 5758 5759 5760 5762
5770 5771 5771 5771 5773 5773 5772 5772 5772 5772 5774 5776 5775 5774 5773 5773 5772 5770 5769 5767 5766 5764 5763 5763 5762 5761 5759 5757 5756 5755 5753 5751 5750 5749 5748 5748 5747 5748 5749 5749 5751 5752 5753 5755
5764 5765 5763 5766 5768 5765 5763 5764 5764 5763 5767 5767 5766 5766 5766 5766 5765 5764 5762 5761 5760 5759 5759 5758 5756 5755 5752 5750 5748 5747 5746 5744 5743 5741 5740 5740 5740 5740 5741 5742 5743 5745 5746 5748
5757 5758 5757 5763 5759 5756 5755 5755 5754 5754 5756 5757 5757 5759 5760 5759 5759 5758 5757 5756 5755 5755 5754 5752 5750 5748 5745 5742 5740 5739 5738 5736 5735 5734 5732 5732 5732 5732 5733 5734 5736 5737 5739 5741
5751 5750 5751 5753 5749 5747 5745 5745 5746 5746 5748 5750 5752 5753 5755 5755 5754 5753 5752 5751 5750 5749 5747 5745 5742 5739 5737 5734 5732 5731 5729 5728 5726 5725 5724 5723 5723 5723 5724 5726 5727 5729 5731 5733
5744 5743 5744 5746 5743 5741 5742 5742 5743 5744 5746 5748 5750 5751 5752 5752 5751 5749 5748 5747 5745 5743 5740 5738 5735 5732 5729 5727 5725 5723 5721 5720 5718 5717 5715 5715 5714 5714 5715 5717 5719 5720 5723 5725
5738 5737 5738 5741 5741 5742 5743 5744 5744 5745 5746 5747 5748 5749 5749 5748 5747 5746 5744 5742 5740 5737 5734 5731 5728 5725 5722 5720 5717 5715 5713 5711 5709 5707 5706 5705 5704 5704 5705 5707 5709 5711 5714 5717
5733 5733 5737 5738 5739 5742 5744 5744 5745 5745 5745 5746 5746 5747 5746 5745 5743 5741 5739 5737 5734 5731 5728 5725 5722 5719 5716 5712 5709 5706 5703 5701 5698 5696 5694 5693 5693 5693 5694 5696 5699 5702 5706 5709
5728 5731 5732 5734 5736 5738 5742 5744 5744 5744 5744 5745 5745 5744 5743 5741 5739 5736 5734 5732 5729 5726 5723 5720 5717 5714 5710 5706 5702 5698 5695 5691 5688 5685 5683 5682 5681 5682 5684 5687 5690 5694 5698 5702
5723 5725 5727 5730 5733 5735 5739 5741 5742 5742 5742 5741 5741 5741 5739 5737 5735 5732 5730 5727 5725 5722 5719 5716 5712 5708 5704 5699 5695 5691 5687 5683 5680 5676 5673 5670 5669 5671 5674 5678 5682 5687 5691 5695
5718 5721 5723 5726 5728 5731 5734 5738 5739 5739 5739 5739 5738 5738 5736 5734 5731 5729 5726 5724 5721 5718 5715 5711 5707 5703 5699 5695 5691 5687 5682 5678 5673 5669 5664 5661 5661 5663 5667 5671 5676 5681 5685 5690
5711 5715 5718 5722 5725 5726 5729 5732 5735 5736 5736 5737 5736 5735 5734 5731 5728 5726 5723 5721 5718 5716 5712 5709 5704 5700 5696 5692 5688 5683 5679 5675 5671 5666 5662 5659 5659 5661 5664 5669 5673 5678 5682 5686
5706 5709 5713 5717 5721 5723 5725 5728 5731 5733 5733 5734 5734 5733 5731 5729 5726 5723 5720 5718 5716 5713 5710 5706 5702 5698 5694 5690 5686 5682 5678 5675 5671 5668 5665 5663 5662 5663 5666 5669 5673 5677 5680 5683
5699 5703 5708 5713 5717 5719 5722 5724 5727 5729 5730 5730 5731 5730 5728 5726 5723 5720 5718 5716 5714 5711 5708 5705 5701 5696 5692 5688 5685 5682 5679 5676 5673 5671 5669 5667 5667 5667 5669 5671 5674 5676 5679 5682
5691 5697 5703 5708 5712 5716 5719 5721 5723 5725 5727 5727 5728 5727 5726 5724 5721 5718 5716 5714 5712 5709 5707 5703 5699 5694 5691 5688 5685 5683 5680 5678 5676 5674 5672 5671 5671 5671 5672 5673 5675 5677 5679 5681
5683 5690 5697 5703 5708 5712 5715 5717 5719 5721 5724 5725 5725 5725 5723 5721 5719 5717 5715 5713 5710 5708 5705 5702 5698 5694 5691 5688 5686 5684 5682 5680 5679 5677 5676 5675 5674 5674 5675 5675 5676 5677 5678 5679
5678 5685 5692 5698 5703 5707 5710 5713 5716 5718 5720 5722 5722 5722 5721 5719 5717 5715 5714 5712 5709 5707 5704 5701 5698 5695 5692 5690 5687 5685 5683 5682 5681 5680 5679 5678 5677 5677 5677 5677 5677 5677 5677 5678
5675 5681 5687 5693 5698 5702 5706 5709 5712 5715 5717 5719 5719 5720 5719 5718 5716 5715 5713 5711 5709 5706 5704 5701 5699 5696 5694 5691 5689 5687 5685 5683 5682 5681 5680 5679 5679 5678 5678 5677 5677 5677 5677 5677
5670 5676 5682 5688 5694 5698 5702 5706 5709 5712 5714 5716 5717 5717 5717 5717 5716 5715 5713 5711 5709 5706 5704 5701 5700 5698 5696 5693 5691 5688 5687 5685 5684 5683 5682 5681 5680 5679 5678 5677 5677 5676 5676 5676
5664 5670 5677 5683 5689 5694 5699 5702 5705 5709 5711 5713 5714 5715 5716 5716 5715 5715 5713 5711 5709 5706 5704 5702 5701 5699 5697 5695 5693 5690 5689 5687 5686 5684 5683 5682 5681 5680 5679 5678 5677 5676 5675 5675
5658 5665 5672 5678 5683 5689 5694 5698 5702 5705 5708 5710 5711 5713 5714 5715 5715 5715 5713 5712 5709 5707 5704 5703 5702 5700 5699 5697 5695 5693 5691 5690 5688 5686 5685 5683 5682 5681 5680 5678 5677 5676 5675 5674
5653 5661 5668 5674 5678 5684 5689 5694 5698 5702 5704 5707 5709 5711 5712 5713 5714 5714 5714 5712 5710 5707 5706 5704 5703 5702 5700 5699 5697 5695 5694 5692 5690 5689 5687 5685 5684 5682 5681 5680 5678 5677 5676 5674
5648 5656 5663 5669 5675 5679 5685 5690 5694 5698 5701 5704 5706 5708 5710 5712 5713 5714 5714 5712 5710 5709 5707 5706 5704 5703 5702 5701 5700 5698 5697 5695 5693 5692 5690 5688 5686 5685 5683 5682 5681 5679 5677 5675
5643 5650 5658 5665 5671 5676 5681 5686 5691 5695 5698 5701 5704 5706 5708 5710 5711 5712 5712 5712 5711 5710 5708 5707 5706 5705 5704 5703 5702 5701 5700 5698 5697 5695 5693 5692 5690 5688 5687 5685 5683 5681 5679 5677
5637 5645 5653 5661 5667 5672 5677 5682 5687 5692 5695 5698 5701 5703 5706 5708 5709 5711 5711 5711 5711 5710 5709 5708 5708 5707 5706 5705 5705 5704 5702 5701 5700 5698 5697 5695 5694 5692 5690 5688 5687 5685 5682 5680
5632 5640 5649 5657 5663 5668 5672 5678 5683 5688 5691 5694 5697 5700 5703 5705 5707 5708 5709 5710 5711 5711 5710 5710 5709 5709 5708 5707 5707 5706 5705 5704 5703 5702 5700 5699 5697 5696 5694 5692 5690 5688 5686 5684
5627 5635 5644 5653 5659 5664 5668 5673 5679 5683 5687 5691 5694 5697 5700 5702 5704 5705 5707 5708 5709 5710 5711 5710 5710 5710 5710 5709 5709 5709 5708 5707 5706 5705 5704 5702 5701 5699 5698 5696 5694 5692 5689 5687